Regional Weather Roundup
Issued by NWS

Home | Current Version | Previous Version | Graphics & Text | Print | Product List | Glossary On
Versions: 1 2 3 4 5 6 7 8 9 10 11 12 13 14 15 16 17 18 19 20 21 22 23 24 25 26 27 28 29 30 31 32 33 34 35 36 37 38 39 40 41 42 43 44 45 46 47 48 49 50
000
ASUS45 KCYS 261810
RWRWY

WYOMING REGIONAL WEATHER ROUNDUP
NATIONAL WEATHER SERVICE CHEYENNE WY
1200 PM MDT THU MAR 26 2015

NOTE:  "FAIR" INDICATES FEW OR NO CLOUDS BELOW 12,000 FEET
WITH NO SIGNIFICANT WEATHER AND/OR OBSTRUCTIONS TO VISIBILITY.

WYZ001-261900-
YELLOWSTONE NATIONAL PARK

CITY           SKY/WX    TMP DP  RH WIND       PRES   REMARKS
LK YELLOWSTONE   N/A     36  26  67 VRB6      30.37S WCI  31
6HR MIN TEMP:  23; 6HR MAX TEMP:  37;

W YELLOWSTONE  NOT AVBL

$$
WYZ002>013-054>058-071-098>099-261900-
NORTHERN WYOMING

CITY           SKY/WX    TMP DP  RH WIND       PRES   REMARKS
JACKSON        SUNNY     37  25  60 CALM      30.37F
CODY           FAIR      55  28  35 W13G25    30.17F
GREYBULL       CLOUDY    52  24  33 SW3       30.19F
6HR MIN TEMP:  38; 6HR MAX TEMP:  52;

WORLAND        CLOUDY    53  26  35 N5        30.19F
6HR MIN TEMP:  28; 6HR MAX TEMP:  53;

SHERIDAN       CLOUDY    52  34  50 N20       30.16F
6HR MIN TEMP:  44; 6HR MAX TEMP:  52;

BUFFALO        CLOUDY    47  33  58 N24G35    30.16F
6HR MIN TEMP:  37; 6HR MAX TEMP:  48; 6HR PCP: TRACE;

GILLETTE       CLOUDY    44  34  67 NW18      30.16R
6HR MIN TEMP:  38; 6HR MAX TEMP:  44; 6HR PCP:  0.01;

HULETT         CLOUDY    45  30  57 NW16      30.14S
NEWCASTLE      LGT RAIN  43  32  65 N20G25    30.15S

$$
WYZ014>020-022>026-101>103-261900-
CENTRAL WYOMING

CITY           SKY/WX    TMP DP  RH WIND       PRES   REMARKS
BIG PINEY      FAIR      50  23  34 N21G29    30.31F
6HR MIN TEMP:  15; 6HR MAX TEMP:  50;

PINEDALE       FAIR      43  27  52 W26G33    30.30S
DUBOIS         MOCLDY    45  27  49 N20G30    30.28R
LANDER         FAIR      54  25  32 VRB3      30.18F
6HR MIN TEMP:  29; 6HR MAX TEMP:  56;

RIVERTON       FAIR      52  23  32 NE10      30.19F
6HR MIN TEMP:  37; 6HR MAX TEMP:  52;

CASPER         CLOUDY    50  23  34 NW14G20   30.19F
6HR MIN TEMP:  31; 6HR MAX TEMP:  51;

DOUGLAS        CLOUDY    50  23  34 NW16      30.17F
6HR MIN TEMP:  33; 6HR MAX TEMP:  51;


$$
WYZ021-027>030-104>119-261900-
SOUTHERN WYOMING

CITY           SKY/WX    TMP DP  RH WIND       PRES   REMARKS
EVANSTON       FAIR      47  26  44 SW10G16   30.40F
6HR MIN TEMP:  26; 6HR MAX TEMP:  47;

KEMMERER       FAIR      41  27  56 W17       30.39F
FORT BRIDGER   FAIR      49  26  41 W18G28    30.41S
ROCK SPRINGS   FAIR      47  24  40 W25G33    30.32F
6HR MIN TEMP:  29; 6HR MAX TEMP:  48;

DIXON          FAIR      44  23  44 W6        30.36F
RAWLINS        FAIR      45  21  38 W22G30    30.27F
6HR MIN TEMP:  27; 6HR MAX TEMP:  45;

SARATOGA       FAIR      43  21  42 W21G28    30.30F
LARAMIE        CLOUDY    43  18  36 N10       30.21R
6HR MIN TEMP:  24; 6HR MAX TEMP:  44;

CHEYENNE       CLOUDY    47  18  31 NW21G33   30.18S
6HR MIN TEMP:  33; 6HR MAX TEMP:  49;

TORRINGTON     CLOUDY    49  25  39 NW16      30.16F
6HR MIN TEMP:  25; 6HR MAX TEMP:  49;

PINE BLUFFS    FAIR      50  21  32 NW24G31   30.18S

$$



USA.gov is the U.S. government's official web portal to all federal, state and local government web resources and services.